Regional Weather Roundup
Issued by NWS

Home | Current Version | Previous Version | Graphics & Text | Print | Product List | Glossary On
Versions: 1 2 3 4 5 6 7 8 9 10 11 12 13 14 15 16 17 18 19 20 21 22 23 24 25 26 27 28 29 30 31 32 33 34 35 36 37 38 39 40 41 42 43 44 45 46 47 48 49 50
000
ASUS43 KLSX 230259
RWRMO

WEATHER SUMMARY FOR MISSOURI
NATIONAL WEATHER SERVICE SPRINGFIELD MO
900 PM CST SAT NOV 22 2014

NOTE: "FAIR" INDICATES FEW OR NO CLOUDS BELOW 12,000 FEET WITH NO
       SIGNIFICANT WEATHER AND/OR OBSTRUCTIONS TO VISIBILITY.
       CURRENT SKY AND/OR WEATHER CONDITIONS ARE NOT AVAILABLE FOR
       CHILLICOTHE AND FARMINGTON.

MOZ001>031-035>038-043-044-053-054-230400-
...NORTHERN AND WESTERN MISSOURI...

CITY           SKY/WX    TMP DP  RH WIND       PRES   REMARKS
KANSAS CTY INT CLOUDY    56  51  84 S23G29    29.72F
KANSAS C DTWN  CLOUDY    58  51  78 S16G23    29.74F
ST JOSEPH      CLOUDY    55  51  86 S15       29.71R
CHILLICOTHE      N/A     56  50  80 S13       29.74F
KIRKSVILLE     PTCLDY    52  50  93 S13       29.77F

$$
MOZ066>068-077>081-088>096-101>105-230400-
...SOUTHWEST MISSOURI...

CITY           SKY/WX    TMP DP  RH WIND       PRES   REMARKS
SPRINGFIELD    MOCLDY    52  50  93 S16       29.83F
JOPLIN         PTCLDY    53  51  93 S8        29.80F

$$
MOZ032>034-039>042-045>050-055>058-069>072-230400-
...CENTRAL MISSOURI...

CITY           SKY/WX    TMP DP  RH WIND       PRES   REMARKS
COLUMBIA       MOCLDY    53  50  89 S15       29.85R
JEFFERSON CITY CLOUDY    54  49  83 SE8       29.86S
ROLLA          CLOUDY    52  48  86 S14       29.87S
SEDALIA        PTCLDY    53  50  89 S15       29.81F
WARRENSBURG    PTCLDY    52  48  87 SE10      29.77F
OSAGE BEACH    CLOUDY    54  48  82 S9G18     29.85F

$$
MOZ051-052-059>065-230400-
...EAST CENTRAL MISSOURI...

CITY           SKY/WX    TMP DP  RH WIND       PRES   REMARKS
ST LOUIS INTL  LGT RAIN  55  50  83 S8        29.91S
SPIRIT OF STL  CLOUDY    54  51  90 S7        29.89F
ST CHARLES     LGT RAIN  52  51  97 S6        29.91S FOG

$$
MOZ072>076-082>087-097>100-106>115-230400-
...SOUTH CENTRAL AND SOUTHEAST MISSOURI...

CITY           SKY/WX    TMP DP  RH WIND       PRES   REMARKS
CAPE GIRARDEAU CLOUDY    57  41  55 S12       30.00F
FARMINGTON     MOCLDY    52  48  87 SE14      29.95F
POPLAR BLUFF   MOCLDY    54  43  66 S3        29.98F
WEST PLAINS    CLOUDY    52  48  86 S13       29.93F

$$


USA.gov is the U.S. government's official web portal to all federal, state and local government web resources and services.